Regional Weather Roundup
Issued by NWS Northern Indiana

Home | Current Version | Previous Version | Text Only | Print | Product List | Glossary Off
Versions: 1 2 3 4 5 6 7 8 9 10 11 12 13 14 15 16 17 18 19 20 21 22 23 24 25 26 27 28 29 30 31 32 33 34 35 36 37 38 39 40 41 42 43 44 45 46 47 48 49 50

000
ASUS43 KIWX 222210
RWRIWX

KIWX WEATHER ROUNDUP
NATIONAL WEATHER SERVICE NORTHERN INDIANA
600 PM EDT FRI MAY 22 2015

NOTE: "FAIR" INDICATES FEW OR NO CLOUDS BELOW 12,000 FEET WITH NO
SIGNIFICANT WEATHER AND/OR OBSTRUCTIONS TO VISIBILITY.

* THESE STATIONS ARE NOT UNDER NWS QUALITY CONTROL. THEY ALSO MAY NOT
  REPORT WEATHER SUCH AS PRECIPITATION OR FOG.

INZ001>027-222300-
NORTHERN INDIANA

CITY           SKY/WX    TMP DP  RH WIND       PRES   REMARKS
GARY*          PTSUNNY   55  37  50 NE9       30.28R
VALPARAISO     FAIR      67  33  28 NE8       30.25R
MICHIGAN CITY* SUNNY     61  34  36 N9        30.27R
LAPORTE*       SUNNY     68  33  27 N9        30.26R
KNOX*          MOSUNNY   68  34  28 N13       30.23R
SOUTH BEND     SUNNY     68  32  26 N13       30.25S
ELKHART*       SUNNY     66  30  26 N9        30.25R
GOSHEN         SUNNY     69  37  30 NW14G21   30.23R
MONTICELLO*    PTSUNNY   75  39  27 N9G16     30.21R
LOGANSPORT*    PTSUNNY   73  27  17 N8        30.21S
ROCHESTER*     SUNNY     72  34  25 NE7       30.22S
WARSAW*        SUNNY     68  36  30 NW8       30.22S
ANGOLA*        SUNNY     70  36  28 NW8       30.23R
FORT WAYNE     MOSUNNY   71  39  31 N12       30.22S
HUNTINGTON*    SUNNY     70  32  24 NW8       30.22R
MARION*        MOSUNNY   71  34  25 NW3       30.21S

$$
INZ028>050-222300-
CENTRAL INDIANA

CITY           SKY/WX    TMP DP  RH WIND       PRES   REMARKS
LAFAYETTE      PTSUNNY   72  41  32 W7        30.20S
KOKOMO*        PTSUNNY   73  39  29 N6        30.21S
MUNCIE*        MOSUNNY   73  41  31 NW5       30.21R
INDIANAPOLIS   CLOUDY    75  42  30 W10       30.20S

$$
MIZ043>046-050>051-056>058-064>065-071>073-077>080-222300-
SOUTHWEST LOWER MICHIGAN

CITY           SKY/WX    TMP DP  RH WIND       PRES   REMARKS
BATTLE CREEK   SUNNY     66  30  26 NW15      30.25R
BENTON HARBOR  SUNNY     58  32  37 N5        30.27F
COLDWATER*     SUNNY     67  32  26 NW12      30.23R
HILLSDALE*     SUNNY     68  30  24 NW10G20   30.23R
HOLLAND        SUNNY     61  28  28 NW12      30.29R
GRAND RAPIDS   MOSUNNY   66  30  26 W15G23    30.25R
KALAMAZOO      SUNNY     67  32  27 W14       30.26R
STURGIS*       SUNNY     68  36  30 NW10      30.23R
THREE RIVERS*  FAIR      66  32  28 NW13G18   30.25R

$$
OHZ001>008-015>018-024>025-222300-
NORTHWEST OHIO

CITY           SKY/WX    TMP DP  RH WIND       PRES   REMARKS
WAUSEON*       FAIR      70  28  21 N9        30.22S
DEFIANCE       SUNNY     70  33  25 N8        30.22S
FINDLAY        SUNNY     71  32  23 NW9G18    30.21R
TOLEDO EXPRESS SUNNY     69  29  22 NW10G20   30.22R
TOLEDO METCALF SUNNY     69  26  20 N12G18    30.23R
LIMA           SUNNY     69  33  26 NW5       30.21S

$$
AND FOR LAKE MICHIGAN COASTAL AND OPEN LAKE BUOY OBSERVATIONS

STATION/POSITION TEMP    WIND        PRES    VSBY  WAVE
                 AIR SEA DIR/SP/G                  HT/PER
                 (F)     (DEG/KT/KT) (MB)    (MI)  (FT/S)
CALUMET HARBOR    50      30/  6/  7   N/A
MICHIGAN CITY     52      30/ 13/ 14   N/A
BURNS HARBOR      53      60/ 10/ 11 1025.7R
SAINT JOSEPH      55     360/ 10/ 15 1025.1F
SOUTH LAKE BUOY   41 38   40/  6/  8 1026.3F         0
4 MI NW BRIDGMAN  52 53   60/ 14/ 16   N/A           2/ 3
MICHIGAN CITY     51 51   70/ 10/ 12   N/A           2/ 3

$$
&&



USA.gov is the U.S. government's official web portal to all federal, state and local government web resources and services.